[[{"header":{"parameterUnit":"m.s-1","parameterCategory":1,"la1":30.2991,"la2":30.254,"lo1":-89.0895,"lo2":-89.0444,"dy":0.0017,"dx":0.0017,"nx":28,"ny":28,"refTime":"2025-07-12T21:00:00:Z","depth":0,"parameterNumber":2,"parameterNumberName":"U-component_of_WINDS"},"data":[0,0,0,0,0,0,0,0,0,0,0,0,0,0,0,0,0,0,0,0,0,0,0,0,0,0,0,0,0,0,0,0,0,0,0,0,0,0,0,0,0,0,0,0,0,0,0,0,0,0,0,0,0,0,0,0,0,0,-0.081,-0.081,0,-0.08,-0.08,-0.08,-0.0729,-0.0727,-0.0726,-0.0724,-0.0716,-0.0717,-0.0719,0,0,0,0,0,0,0,0,0,0,0,0,0,-0.077,-0.0771,-0.081,-0.081,-0.081,-0.08,-0.08,-0.08,-0.0729,-0.0727,-0.0725,-0.0723,-0.0716,-0.0717,-0.0719,0,0,0,0,0,0,0,0,0,0,0,0,0,-0.0776,-0.0771,-0.081,-0.0773,-0.077,-0.08,-0.08,-0.08,-0.073,-0.0727,-0.0725,-0.0722,-0.0715,-0.0717,-0.0719,-0.0784,0,0,-0.0726,-0.0726,0,0,0,0,0,0,0,0,-0.0776,-0.0778,-0.0779,-0.0776,-0.0772,-0.0763,-0.0783,-0.0795,-0.0731,-0.0745,-0.0724,-0.0721,-0.0734,-0.0734,-0.0738,-0.0784,-0.0783,-0.0726,-0.0727,-0.0728,-0.0729,0,0,0,0,0,0,0,-0.0776,-0.0778,-0.0806,-0.0779,-0.0775,-0.0758,-0.0756,-0.0785,-0.0754,-0.0744,-0.0739,-0.0738,-0.0732,-0.0736,-0.0738,-0.0783,-0.0726,-0.0728,-0.0729,-0.073,-0.088,-0.0883,0,0,0,0,0,0,-0.078,-0.0778,-0.0806,-0.0806,-0.0768,-0.0761,-0.0759,-0.0769,-0.0754,-0.0749,-0.074,-0.0735,-0.0734,-0.0735,-0.0737,-0.081,-0.0728,-0.073,-0.0731,-0.0878,-0.0881,-0.0884,0,0,0,0,0,0,-0.0779,-0.0783,-0.0807,-0.079,-0.0792,-0.0764,-0.0776,-0.077,-0.0774,-0.0751,-0.0746,-0.0751,-0.0732,-0.0734,-0.0772,-0.0809,-0.0731,-0.0733,-0.0875,-0.0879,-0.0883,-0.0959,0,0,0,0,0,0,-0.0779,-0.0783,-0.0807,-0.0791,-0.0793,-0.0842,-0.0778,-0.0772,-0.0778,-0.0771,-0.0759,-0.0755,-0.073,-0.077,-0.0775,-0.0811,-0.0734,-0.0871,-0.0876,-0.0881,-0.0953,-0.0965,-0.0976,0,0,0,0,0,-0.0777,-0.083,-0.0809,-0.0813,-0.0822,-0.0844,-0.0845,-0.0815,-0.0781,-0.0805,-0.079,-0.0755,-0.0805,-0.0774,-0.0779,-0.0816,-0.0869,-0.0875,-0.0881,-0.0948,-0.0963,-0.0975,0,0,0,0,0,0,-0.0852,-0.0827,-0.0803,-0.0852,-0.0851,-0.0832,-0.0861,-0.0832,-0.084,-0.0833,-0.0796,-0.0794,-0.0838,-0.0831,-0.0798,-0.0878,-0.0831,-0.0838,-0.088,-0.0894,-0.0905,-0.0905,-0.0736,0,0,0,0,0,-0.0874,-0.0893,-0.0871,-0.0916,-0.0917,-0.089,-0.0898,-0.0875,-0.0872,-0.0871,-0.0859,-0.0858,-0.0873,-0.0884,-0.0896,-0.0953,-0.0949,-0.0981,-0.0992,-0.1002,-0.1008,-0.1036,-0.1049,-0.0904,-0.0904,-0.0904,0,0,-0.0919,-0.0908,-0.0923,-0.0931,-0.0927,-0.0947,-0.0889,-0.0914,-0.0929,-0.0875,-0.0909,-0.0901,-0.0897,-0.0945,-0.0965,-0.0941,-0.1047,-0.101,-0.1017,-0.1018,-0.1043,-0.1057,-0.1069,-0.0909,-0.0908,-0.0907,0,0,-0.1012,-0.1007,-0.1043,-0.104,-0.1035,-0.1016,-0.1025,-0.1011,-0.1003,-0.1037,-0.0997,-0.1015,-0.1042,-0.1041,-0.1044,-0.1137,-0.1105,-0.1143,-0.1201,-0.1228,-0.124,-0.125,-0.1281,-0.1293,-0.1149,-0.115,-0.115,0,-0.107,-0.1098,-0.1066,-0.1092,-0.1097,-0.1049,-0.1085,-0.1084,-0.1084,-0.1088,-0.1061,-0.1093,-0.1088,-0.1133,-0.1156,-0.1161,-0.1169,-0.1142,-0.1241,-0.125,-0.1259,-0.1288,-0.1301,-0.1154,-0.1154,-0.1153,-0.1153,0,-0.1168,-0.1189,-0.122,-0.1219,-0.1227,-0.1259,-0.1231,-0.1243,-0.122,-0.1205,-0.124,-0.1232,-0.1242,-0.1252,-0.123,-0.1294,-0.1279,-0.1247,-0.1198,-0.1278,-0.1305,-0.1316,-0.116,-0.1159,-0.1157,-0.1156,0,0,-0.1306,-0.1287,-0.1298,-0.1297,-0.1288,-0.1303,-0.1333,-0.1342,-0.1352,-0.1355,-0.1378,-0.1402,-0.1373,-0.1376,-0.1354,-0.1379,-0.1451,-0.1343,-0.1343,-0.1362,-0.1519,-0.1541,-0.1555,-0.143,-0.1433,-0.1434,-0.1519,0,-0.1393,-0.1441,-0.1413,-0.1466,-0.1484,-0.1439,-0.1465,-0.1462,-0.1449,-0.1463,-0.145,-0.1466,-0.1427,-0.1429,-0.1451,-0.1437,-0.1481,-0.1431,-0.1451,-0.1452,-0.145,-0.1569,-0.1592,-0.1673,-0.1529,-0.1531,-0.1533,0,-0.1501,-0.1506,-0.156,-0.1546,-0.1553,-0.1577,-0.1582,-0.1596,-0.1593,-0.1582,-0.1586,-0.1558,-0.1586,-0.154,-0.1578,-0.1545,-0.1551,-0.1546,-0.1548,-0.1547,-0.1495,-0.1569,-0.1698,-0.1709,-0.1549,-0.1548,-0.1547,0,-0.1593,-0.1614,-0.1648,-0.1649,-0.1635,-0.1652,-0.1647,-0.1641,-0.1648,-0.1653,-0.1657,-0.1667,-0.1671,-0.1679,-0.1654,-0.1623,-0.1695,-0.1647,-0.1686,-0.1686,-0.1701,-0.1699,-0.183,-0.171,-0.171,-0.171,-0.1709,0,-0.1691,-0.1726,-0.1689,-0.171,-0.1747,-0.1715,-0.1753,-0.1743,-0.1738,-0.1757,-0.172,-0.1739,-0.1706,-0.1721,-0.1702,-0.1736,-0.1739,-0.173,-0.1724,-0.1732,-0.1732,-0.1733,-0.1726,-0.1713,-0.1712,-0.1711,-0.1711,0,-0.1798,-0.1776,-0.181,-0.1794,-0.179,-0.1818,-0.1805,-0.1824,-0.1809,-0.1833,-0.1837,-0.1813,-0.1829,-0.1806,-0.182,-0.1807,-0.1853,-0.184,-0.1853,-0.1848,-0.1887,-0.1883,-0.2021,-0.2036,-0.1909,-0.191,-0.1911,0,-0.1861,-0.1886,-0.1873,-0.1882,-0.1879,-0.1895,-0.1902,-0.1872,-0.188,-0.1878,-0.1898,-0.1911,-0.1919,-0.1947,-0.1931,-0.1941,-0.1927,-0.1975,-0.1928,-0.1934,-0.1924,-0.1922,-0.1924,-0.1983,-0.1985,-0.1986,-0.1987,0,-0.1975,-0.1962,-0.1972,-0.1979,-0.1988,-0.1992,-0.1994,-0.2004,-0.1973,-0.1984,-0.2,-0.2006,-0.202,-0.2033,-0.2039,-0.2035,-0.2005,-0.2002,-0.2011,-0.2017,-0.2023,-0.2018,-0.1876,-0.1998,-0.1997,-0.1996,-0.1996,-0.1995,-0.206,-0.2079,-0.2072,-0.2085,-0.2083,-0.2086,-0.2102,-0.2089,-0.2101,-0.2109,-0.2092,-0.2112,-0.2108,-0.2113,-0.2112,-0.2127,-0.2106,-0.212,-0.2123,-0.2126,-0.213,-0.2024,-0.2129,-0.2128,-0.2128,-0.2128,-0.2127,0,-0.2169,-0.2162,-0.2175,-0.2177,-0.2187,-0.216,-0.216,-0.217,-0.2188,-0.2187,-0.2195,-0.2213,-0.2226,-0.2212,-0.2222,-0.2236,-0.2223,-0.224,-0.2237,-0.2236,-0.215,-0.214,-0.225,-0.225,-0.225,-0.225,-0.225,-0.225,-0.2226,-0.2257,-0.2244,-0.2274,-0.2268,-0.2286,-0.2288,-0.229,-0.2289,-0.231,-0.232,-0.2311,-0.2304,-0.2313,-0.2323,-0.2319,-0.2323,-0.2344,-0.2335,-0.2254,-0.2242,-0.223,-0.2221,-0.2346,-0.2346,-0.2419,-0.242,-0.242]},{"header":{"parameterUnit":"m.s-1","parameterCategory":1,"la1":30.2991,"la2":30.254,"lo1":-89.0895,"lo2":-89.0444,"dy":0.0017,"dx":0.0017,"nx":28,"ny":28,"refTime":"2025-07-12T21:00:00:Z","depth":0,"parameterNumber":3,"parameterNumberName":"V-component_of_WINDS"},"data":[0,0,0,0,0,0,0,0,0,0,0,0,0,0,0,0,0,0,0,0,0,0,0,0,0,0,0,0,0,0,0,0,0,0,0,0,0,0,0,0,0,0,0,0,0,0,0,0,0,0,0,0,0,0,0,0,0,0,-0.3584,-0.3584,0,-0.3644,-0.3645,-0.3645,-0.3647,-0.3646,-0.3645,-0.3645,-0.3707,-0.3709,-0.3711,0,0,0,0,0,0,0,0,0,0,0,0,0,-0.347,-0.3472,-0.3583,-0.3584,-0.3585,-0.3644,-0.3645,-0.3645,-0.3647,-0.3646,-0.3645,-0.3644,-0.3706,-0.3709,-0.3711,0,0,0,0,0,0,0,0,0,0,0,0,0,-0.3523,-0.3472,-0.3583,-0.3593,-0.3594,-0.3644,-0.3645,-0.3646,-0.3647,-0.3646,-0.3645,-0.3644,-0.3705,-0.3708,-0.3712,-0.3756,0,0,-0.3723,-0.3724,0,0,0,0,0,0,0,0,-0.352,-0.3528,-0.3591,-0.3592,-0.3594,-0.3637,-0.3627,-0.3683,-0.3647,-0.3627,-0.3645,-0.3643,-0.3684,-0.3689,-0.3703,-0.3759,-0.3761,-0.3723,-0.3725,-0.3727,-0.3727,0,0,0,0,0,0,0,-0.3517,-0.3525,-0.3607,-0.3592,-0.3594,-0.3594,-0.3601,-0.3638,-0.3661,-0.3629,-0.3629,-0.3636,-0.3685,-0.37,-0.3705,-0.3762,-0.3723,-0.3726,-0.3728,-0.3729,-0.3858,-0.3859,0,0,0,0,0,0,-0.3511,-0.3522,-0.3605,-0.3609,-0.3554,-0.3597,-0.3604,-0.3624,-0.3661,-0.3665,-0.3637,-0.3636,-0.3694,-0.3701,-0.3707,-0.3762,-0.3726,-0.373,-0.3732,-0.3857,-0.3858,-0.386,0,0,0,0,0,0,-0.3509,-0.3518,-0.3603,-0.3566,-0.3576,-0.36,-0.3622,-0.3626,-0.3641,-0.3667,-0.3671,-0.3648,-0.3694,-0.3702,-0.3744,-0.3764,-0.3731,-0.3735,-0.3855,-0.3857,-0.3859,-0.3871,0,0,0,0,0,0,-0.3505,-0.3518,-0.3535,-0.3566,-0.3578,-0.3639,-0.3624,-0.3628,-0.3647,-0.3646,-0.3678,-0.3683,-0.3693,-0.3739,-0.3747,-0.3768,-0.3737,-0.3853,-0.3856,-0.3858,-0.3869,-0.3873,-0.3877,0,0,0,0,0,-0.3501,-0.3535,-0.3535,-0.3545,-0.36,-0.364,-0.3647,-0.3659,-0.3648,-0.3666,-0.3683,-0.3682,-0.376,-0.3743,-0.3753,-0.3775,-0.3852,-0.3855,-0.3858,-0.3867,-0.3872,-0.3877,0,0,0,0,0,0,-0.3506,-0.354,-0.354,-0.3585,-0.361,-0.364,-0.3663,-0.3664,-0.3692,-0.369,-0.3703,-0.3711,-0.3753,-0.3768,-0.3748,-0.382,-0.3805,-0.381,-0.3808,-0.3813,-0.3817,-0.3813,-0.374,0,0,0,0,0,-0.3512,-0.3541,-0.3569,-0.3607,-0.3619,-0.3639,-0.3656,-0.3663,-0.3689,-0.37,-0.372,-0.3745,-0.3775,-0.3795,-0.3824,-0.3871,-0.3878,-0.3891,-0.3895,-0.3898,-0.3902,-0.3929,-0.3935,-0.3869,-0.3869,-0.3869,0,0,-0.3525,-0.3547,-0.3565,-0.3608,-0.3628,-0.3659,-0.3647,-0.368,-0.3703,-0.3705,-0.3746,-0.3761,-0.379,-0.3835,-0.3856,-0.3849,-0.3922,-0.3901,-0.3904,-0.3907,-0.3932,-0.3938,-0.3944,-0.3871,-0.3871,-0.3871,0,0,-0.3565,-0.3584,-0.3618,-0.3638,-0.3668,-0.3681,-0.3689,-0.3719,-0.373,-0.3771,-0.3773,-0.3801,-0.3852,-0.3873,-0.3891,-0.3939,-0.3939,-0.3948,-0.3968,-0.3994,-0.3999,-0.4004,-0.4022,-0.4028,-0.3952,-0.3952,-0.3952,0,-0.3577,-0.3624,-0.3635,-0.3668,-0.3687,-0.369,-0.3724,-0.3743,-0.3781,-0.3795,-0.3786,-0.3852,-0.3872,-0.3922,-0.3933,-0.3947,-0.3957,-0.3945,-0.3997,-0.4002,-0.4007,-0.4024,-0.403,-0.3953,-0.3953,-0.3953,-0.3953,0,-0.3638,-0.367,-0.3693,-0.373,-0.3752,-0.3786,-0.3802,-0.3823,-0.3828,-0.3842,-0.3884,-0.3908,-0.3942,-0.3954,-0.3959,-0.4005,-0.4,-0.3994,-0.398,-0.4014,-0.403,-0.4037,-0.3954,-0.3954,-0.3954,-0.3953,0,0,-0.3683,-0.3726,-0.3734,-0.3751,-0.3785,-0.381,-0.3843,-0.3877,-0.3895,-0.3921,-0.395,-0.3994,-0.3989,-0.4009,-0.4016,-0.4038,-0.4076,-0.403,-0.4031,-0.4039,-0.4128,-0.4133,-0.414,-0.4076,-0.4077,-0.4078,-0.4126,0,-0.3727,-0.3787,-0.3798,-0.3851,-0.3881,-0.3884,-0.3913,-0.3937,-0.3951,-0.3978,-0.3993,-0.4025,-0.4015,-0.4027,-0.405,-0.4067,-0.4094,-0.4063,-0.4103,-0.4105,-0.4097,-0.4149,-0.4154,-0.4198,-0.4133,-0.4134,-0.4135,0,-0.3786,-0.3814,-0.387,-0.39,-0.3913,-0.3939,-0.3971,-0.3997,-0.4024,-0.4033,-0.4055,-0.406,-0.4095,-0.4079,-0.4128,-0.4106,-0.4123,-0.4134,-0.4136,-0.4141,-0.4122,-0.4156,-0.4212,-0.4219,-0.4145,-0.4144,-0.4143,0,-0.3814,-0.3866,-0.3906,-0.392,-0.3956,-0.3974,-0.399,-0.4016,-0.4036,-0.4064,-0.4077,-0.4109,-0.4126,-0.4151,-0.4164,-0.415,-0.4212,-0.4197,-0.4221,-0.4221,-0.4234,-0.4233,-0.4295,-0.4244,-0.4244,-0.4244,-0.4244,0,-0.3863,-0.3897,-0.3919,-0.3944,-0.3982,-0.3995,-0.4032,-0.4048,-0.4071,-0.4099,-0.4103,-0.4129,-0.4145,-0.4173,-0.4184,-0.4224,-0.4231,-0.4239,-0.4242,-0.4239,-0.4238,-0.4251,-0.4249,-0.4246,-0.4245,-0.4245,-0.4245,0,-0.3901,-0.3917,-0.3961,-0.3991,-0.4,-0.4027,-0.4053,-0.4077,-0.409,-0.4126,-0.4135,-0.4156,-0.419,-0.4206,-0.4247,-0.4254,-0.4299,-0.4299,-0.429,-0.4292,-0.4315,-0.4313,-0.4388,-0.4398,-0.434,-0.434,-0.4341,0,-0.3931,-0.3958,-0.3991,-0.401,-0.4026,-0.4057,-0.4077,-0.409,-0.4111,-0.4144,-0.4165,-0.4199,-0.4227,-0.428,-0.43,-0.4332,-0.4333,-0.4357,-0.4338,-0.4335,-0.4334,-0.4333,-0.4336,-0.4361,-0.4361,-0.4362,-0.4362,0,-0.3984,-0.399,-0.4019,-0.4051,-0.4076,-0.4101,-0.4127,-0.4142,-0.4159,-0.4183,-0.4217,-0.4239,-0.4282,-0.4315,-0.4349,-0.4365,-0.4367,-0.4368,-0.4375,-0.4373,-0.4367,-0.4371,-0.4301,-0.4366,-0.4366,-0.4365,-0.4365,-0.4365,-0.4019,-0.4043,-0.407,-0.4103,-0.4123,-0.4147,-0.4171,-0.4188,-0.4217,-0.4253,-0.4259,-0.4296,-0.4323,-0.4368,-0.4385,-0.4414,-0.4409,-0.4419,-0.4422,-0.4425,-0.4426,-0.4362,-0.442,-0.442,-0.442,-0.442,-0.442,0,-0.4072,-0.409,-0.412,-0.4155,-0.4181,-0.418,-0.4208,-0.4229,-0.4262,-0.4287,-0.4314,-0.4354,-0.4387,-0.4409,-0.4442,-0.4461,-0.4463,-0.447,-0.4469,-0.4473,-0.4429,-0.442,-0.4468,-0.4468,-0.4468,-0.4468,-0.4468,-0.4468,-0.4103,-0.4144,-0.4154,-0.4204,-0.4222,-0.4258,-0.4274,-0.4296,-0.4316,-0.4361,-0.4388,-0.4402,-0.4426,-0.4461,-0.4491,-0.4497,-0.4509,-0.4516,-0.4521,-0.448,-0.4476,-0.4471,-0.4462,-0.4518,-0.4518,-0.4562,-0.4563,-0.4563]}]]